Date,TemperatureHighF,TemperatureAvgF,TemperatureLowF,DewpointHighF,DewpointAvgF,DewpointLowF,HumidityHigh,HumidityAvg,HumidityLow,PressureMaxIn,PressureMinIn,WindSpeedMaxMPH,WindSpeedAvgMPH,GustSpeedMaxMPH,PrecipitationSumIn
2013-1-1,18,11,5,9,4,1,85,74,59,30.23,30.09,6,3,0,0.00
2013-1-2,23,18,11,18,13,4,86,82,75,30.15,30.04,4,2,6,0.00
2013-1-3,27,21,18,21,15,12,81,79,76,30.10,30.01,7,2,10,0.00
2013-1-4,33,24,15,22,17,11,84,74,62,30.15,29.93,11,6,0,0.00
2013-1-5,31,22,8,26,17,6,92,84,74,30.20,29.85,8,2,0,0.00
2013-1-6,32,25,14,27,19,10,89,78,63,30.24,29.84,12,4,0,0.00
2013-1-7,35,25,17,25,19,15,90,78,63,30.23,29.90,14,7,22,0.00
2013-1-8,38,30,22,31,26,19,90,83,71,30.11,29.99,5,2,9,0.00
2013-1-9,42,36,28,33,27,21,83,69,54,30.42,29.79,13,7,18,0.00
2013-1-10,39,31,20,34,27,16,92,84,71,30.49,29.96,5,1,17,0.28
2013-1-11,44,39,35,43,38,34,97,95,92,29.96,29.55,7,2,8,0.28
2013-1-12,45,37,24,44,32,17,97,83,72,29.97,29.51,14,7,26,0.01
2013-1-13,25,22,15,17,15,9,79,74,70,30.13,29.89,10,5,26,0.00
2013-1-14,24,15,9,11,7,3,80,71,54,30.41,30.14,9,5,12,0.00
2013-1-15,30,19,4,19,12,1,88,74,56,30.44,30.00,9,4,16,0.00
2013-1-16,31,27,22,25,19,9,80,73,51,30.06,29.65,11,6,17,0.00
2013-1-17,24,17,11,10,8,4,74,67,55,30.34,30.07,7,4,17,0.00
2013-1-18,11,6,2,5,0,-4,79,77,75,30.42,30.31,2,0,17,0.00
2013-1-19,41,28,15,36,24,6,90,85,67,29.84,29.49,18,4,0,0.04
2013-1-20,14,10,6,7,1,0,75,69,62,30.20,29.81,15,8,0,0.00
2013-1-22,5,3,-7,-9,-10,-15,67,54,48,30.35,30.31,7,4,11,0.00
2013-1-23,4,-2,-3,-5,-9,-11,73,69,63,30.31,30.20,7,4,11,0.00
2013-1-24,15,8,0,6,-1,-6,78,66,56,30.71,30.42,9,3,0,0.00
2013-1-25,20,15,10,17,12,6,89,87,79,30.41,29.95,6,1,11,0.00
2013-1-26,28,18,8,17,12,5,87,77,61,30.39,30.15,6,2,11,0.07
2013-1-27,33,29,20,31,24,15,94,82,72,30.38,29.92,8,3,13,0.01
2013-1-28,36,34,32,34,32,30,95,93,91,29.97,29.79,7,2,13,0.15
2013-1-29,41,37,33,40,36,31,97,95,93,29.87,29.49,6,2,11,0.38
2013-1-30,34,28,20,33,27,19,96,95,95,29.55,29.30,13,8,22,0.00
2013-1-31,66,34,11,57,27,8,97,78,48,30.02,29.50,13,4,15,0.29
2013-2-1,66,66,66,46,45,44,48,47,46,30.15,30.02,0,0,15,0.00
2013-2-4,-200,0,200,-100,-100,-100,0,0,100,29.94,29.87,0,-999,0,0.00
2013-2-5,-200,0,200,-100,-100,-100,0,0,100,30.05,29.69,0,-999,0,0.00
2013-2-6,-200,0,200,-100,-100,-100,0,0,100,30.21,30.05,0,-999,0,0.00
2013-2-7,-200,0,200,-100,-100,-100,0,0,100,30.13,30.02,0,-999,0,0.00
2013-2-8,-200,0,200,-100,-100,-100,0,0,100,30.38,30.12,0,-999,0,0.00
2013-2-9,-200,0,200,-100,-100,-100,0,0,100,30.37,30.09,0,-999,0,0.00
2013-2-10,-200,0,200,-100,-100,-100,0,0,100,30.09,29.30,0,-999,0,0.00
2013-2-11,-200,0,200,-100,-100,-100,0,0,100,29.85,29.27,0,-999,0,0.00
2013-2-12,-200,0,200,-100,-100,-100,0,0,100,29.95,29.75,0,-999,0,0.00
2013-2-13,-200,0,200,-100,-100,-100,0,0,100,29.75,29.60,0,-999,0,0.00
2013-2-14,-200,0,200,-100,-100,-100,0,0,100,29.97,29.57,0,-999,0,0.00
2013-2-15,-200,0,200,-100,-100,-100,0,0,100,30.14,29.97,0,-999,0,0.00
2013-2-16,-200,0,200,-100,-100,-100,0,0,100,30.15,30.07,0,-999,0,0.00
2013-2-17,-200,0,200,-100,-100,-100,0,0,100,30.18,29.96,0,-999,0,0.00
2013-2-18,-200,0,200,-100,-100,-100,0,0,100,29.96,29.34,0,-999,0,0.00
2013-2-19,-200,0,200,-100,-100,-100,0,0,100,30.03,29.34,0,-999,0,0.00
2013-2-20,-200,0,200,-100,-100,-100,0,0,100,30.36,30.04,0,-999,0,0.00
2013-2-21,-200,0,200,-100,-100,-100,0,0,100,30.42,30.18,0,-999,0,0.00
2013-2-22,-200,0,200,-100,-100,-100,0,0,100,30.17,29.76,0,-999,0,0.00
2013-2-23,-200,0,200,-100,-100,-100,0,0,100,29.83,29.73,0,-999,0,0.00
2013-2-24,-200,0,200,-100,-100,-100,0,0,100,29.96,29.83,0,-999,0,0.00
2013-4-23,70,41,36,43,31,26,92,69,37,30.01,29.84,10,7,18,0.00
2013-4-24,53,40,30,29,24,16,81,56,25,30.01,29.90,11,4,18,0.00
2013-4-25,52,44,32,34,28,22,87,56,31,30.26,29.84,12,7,18,0.00
2013-4-26,59,47,30,48,36,26,89,67,44,30.27,30.07,11,5,18,0.03
2013-4-27,68,57,47,50,46,39,86,68,49,30.16,30.01,11,5,18,0.00
2013-4-28,69,55,39,46,39,35,91,59,31,30.01,29.78,7,3,18,0.00
2013-4-29,60,52,46,56,49,43,96,89,80,29.82,29.75,6,2,18,0.09
2013-4-30,69,56,47,57,50,45,96,82,63,29.80,29.66,13,7,19,0.33
2013-5-1,68,57,45,56,45,36,82,65,47,30.31,29.80,13,6,18,0.00
2013-5-2,53,43,36,39,35,33,91,75,58,30.37,30.25,14,9,18,0.16
2013-5-3,52,42,35,46,38,32,91,85,72,30.30,30.10,10,7,18,0.03
2013-5-4,64,50,40,48,42,39,94,76,50,30.13,30.05,9,6,18,0.01
2013-5-5,64,51,41,43,39,37,87,66,37,30.14,30.05,8,4,18,0.00
2013-5-6,70,53,42,44,40,36,91,65,32,30.12,30.00,8,3,18,0.00
2013-5-7,69,58,42,43,40,37,89,54,33,30.09,30.00,7,3,18,0.00
2013-5-8,76,61,43,46,42,35,89,54,23,30.03,29.94,8,2,18,0.00
2013-5-9,61,52,40,46,42,38,92,71,56,30.07,29.93,12,6,18,0.09
2013-5-10,49,41,35,40,36,33,94,84,64,30.05,29.94,10,6,18,0.17
2013-5-11,50,42,34,43,34,24,96,77,38,29.94,29.75,18,7,24,0.16
2013-5-12,48,40,30,30,24,19,76,56,32,30.13,29.93,14,8,23,0.00
2013-5-13,54,39,28,25,23,19,86,57,31,30.18,30.07,10,4,18,0.00
2013-5-14,58,54,50,48,43,40,78,66,53,29.76,29.46,9,5,18,0.01
2013-5-15,80,65,48,49,41,30,83,48,16,29.76,29.45,13,6,17,0.00
2013-5-16,66,58,50,44,40,37,71,52,37,30.09,29.76,8,4,14,0.00
2013-5-17,55,50,45,46,42,39,85,76,64,30.19,30.06,7,4,14,0.00
2013-5-18,64,54,49,48,46,43,85,73,55,30.14,29.96,7,3,14,0.00
2013-5-19,79,62,48,63,54,44,93,76,56,29.96,29.77,10,4,14,0.00
2013-5-20,76,62,54,63,56,50,94,82,58,29.79,29.63,9,4,14,0.08
2013-5-21,66,56,50,62,54,47,97,93,82,29.69,29.59,8,4,15,0.75
2013-5-22,57,53,51,56,52,50,98,96,92,29.83,29.67,11,6,21,0.09
2013-5-23,55,47,41,50,37,30,94,69,43,30.33,29.83,14,10,19,0.10
2013-5-24,58,47,36,42,35,31,89,64,40,30.45,30.32,8,4,19,0.00
2013-5-25,60,51,37,45,37,32,96,63,36,30.45,30.32,7,2,19,0.00
2013-5-26,62,52,40,45,39,35,96,65,37,30.36,30.21,8,2,19,0.00
2013-5-27,64,55,42,46,43,40,92,67,45,30.22,29.92,9,2,19,0.00
2013-5-28,54,52,51,52,50,45,97,93,70,29.93,29.73,6,2,19,0.08
2013-5-29,67,60,52,62,58,51,98,92,83,29.89,29.76,7,3,19,0.00
2013-5-30,79,70,63,67,64,60,93,80,64,29.86,29.71,10,4,19,0.03
2013-5-31,77,67,58,66,61,57,96,83,62,29.74,29.65,10,5,20,0.01
2013-6-1,72,63,52,65,60,51,95,91,74,29.67,29.57,11,2,19,0.31
2013-6-2,60,50,43,51,43,40,95,77,48,30.03,29.67,11,6,21,0.27
2013-6-3,66,53,39,52,44,37,96,74,41,30.13,29.99,9,3,19,0.00
2013-6-4,57,52,44,48,43,36,94,74,47,30.23,30.12,6,2,19,0.02
2013-6-5,58,52,49,52,48,45,94,89,77,30.18,30.04,6,3,11,0.04
2013-6-6,58,54,50,50,47,41,94,78,54,30.04,29.97,10,4,13,0.13
2013-6-7,72,59,50,49,45,40,89,63,32,30.02,29.90,6,2,8,0.00
2013-6-8,71,60,50,54,48,43,94,69,38,30.03,29.90,7,2,11,0.00
2013-6-9,65,58,48,57,53,46,95,84,72,30.05,29.89,8,3,11,0.00
2013-6-10,73,62,56,60,56,52,93,80,63,29.89,29.78,7,3,10,0.00
2013-6-11,83,66,53,66,58,52,97,79,46,29.87,29.74,8,3,11,0.00
2013-6-12,75,66,55,62,56,53,96,73,47,29.89,29.70,6,2,10,0.00
2013-6-13,73,65,58,55,52,49,79,63,44,30.07,29.76,12,6,18,0.00
2013-6-14,71,61,52,51,46,33,79,59,26,30.16,29.97,8,3,10,0.00
2013-6-15,69,61,55,63,56,46,95,83,65,30.00,29.76,10,1,18,0.42
2013-6-16,83,70,60,64,58,48,97,70,29,29.89,29.75,11,5,20,0.08
2013-6-17,63,60,53,58,55,46,94,84,72,30.04,29.81,9,4,14,0.12
2013-6-18,68,56,46,51,45,36,86,67,32,30.14,30.04,7,3,12,0.00
2013-6-19,73,60,42,53,48,41,96,67,42,30.16,30.05,7,2,13,0.00
2013-6-20,81,70,55,62,56,51,90,64,46,30.11,30.03,8,2,17,0.00
2013-6-21,78,69,62,68,63,56,95,82,64,30.10,29.79,14,3,17,0.59
2013-6-22,70,64,61,65,61,59,94,90,82,30.06,29.86,11,2,14,0.00
2013-6-23,85,72,61,74,67,59,97,86,66,29.98,29.79,7,2,12,0.10
2013-6-24,83,76,68,73,70,66,95,81,69,29.92,29.78,5,1,8,0.00
2013-6-25,81,75,67,71,69,65,94,82,68,29.83,29.75,3,0,8,0.04
2013-6-26,79,72,65,72,67,62,96,86,69,29.77,29.67,3,0,8,0.00
2013-6-27,79,70,61,72,66,58,95,88,76,29.77,29.65,0,0,8,0.59
2013-6-28,73,66,61,66,63,59,96,90,72,29.66,29.58,3,0,8,0.32
2013-6-29,74,66,61,63,58,47,93,75,56,29.86,29.64,9,2,16,0.09
2013-6-30,76,67,57,56,49,43,69,53,33,30.05,29.86,9,3,14,0.00
2013-7-1,74,65,53,59,53,44,87,66,51,30.14,30.05,6,2,13,0.00
2013-7-2,73,63,50,56,48,39,79,60,30,30.16,30.07,8,2,12,0.00
2013-7-3,74,66,58,60,56,52,92,73,50,30.09,29.99,2,0,8,0.00
2013-7-4,80,71,63,67,63,59,93,77,53,30.03,29.95,8,2,9,0.00
2013-7-5,86,76,65,69,64,58,93,68,41,30.00,29.91,4,1,9,0.00
2013-7-6,87,76,70,68,65,63,81,69,46,29.96,29.88,8,3,13,0.00
2013-7-7,84,76,71,74,70,66,91,80,68,29.91,29.85,6,2,11,0.00
2013-7-8,78,71,67,71,68,65,96,92,76,29.96,29.83,9,3,14,1.07
2013-7-9,75,69,64,71,67,62,97,93,84,29.97,29.68,6,3,12,0.34
2013-7-10,77,70,59,70,60,53,96,72,45,29.96,29.71,11,5,15,0.01
2013-7-11,77,67,58,62,56,53,90,71,44,30.10,29.96,6,1,12,0.00
2013-7-12,81,68,55,63,57,53,95,71,45,30.14,30.05,6,1,10,0.00
2013-7-13,84,72,59,66,62,57,93,72,45,30.13,30.05,6,1,10,0.00
2013-7-14,84,74,59,70,65,57,93,74,54,30.21,30.13,5,1,8,0.00
2013-7-15,86,76,64,73,68,63,96,78,55,30.26,30.19,2,0,8,0.00
2013-7-16,90,79,69,78,73,66,94,82,63,30.22,30.12,5,0,8,0.01
2013-7-17,91,81,74,76,74,72,93,82,58,30.20,30.06,8,3,12,0.09
2013-7-18,93,83,73,77,74,70,92,74,53,30.07,29.73,10,4,13,0.00
2013-7-19,92,81,67,75,69,61,87,67,41,29.75,29.61,11,6,15,0.03
2013-7-20,72,67,60,62,55,49,90,67,50,30.00,29.74,9,4,15,0.00
2013-7-21,68,61,54,59,54,48,92,78,67,30.03,29.90,5,2,8,0.00
2013-7-22,84,71,54,71,63,52,95,78,54,29.90,29.57,11,4,20,0.00
2013-7-23,73,65,53,60,52,45,90,64,40,29.98,29.66,14,6,18,0.00
2013-7-24,71,62,50,58,52,46,89,70,49,30.07,29.98,8,3,12,0.00
2013-7-25,78,69,58,64,59,55,89,73,53,30.01,29.87,10,5,13,0.00
2013-7-26,70,64,53,66,61,50,95,90,83,29.91,29.77,15,4,17,0.89
2013-7-27,62,56,50,52,49,46,93,79,60,29.89,29.80,9,4,11,0.00
2013-7-28,57,55,52,56,52,48,95,91,80,29.94,29.78,8,5,13,0.31
2013-7-29,71,61,53,61,56,51,93,82,64,30.14,29.94,7,4,10,0.00
2013-7-30,72,64,57,62,59,55,95,83,70,30.18,30.06,6,2,11,0.00
2013-7-31,78,69,62,68,64,58,93,84,69,30.06,29.86,8,3,13,0.02
2013-8-1,77,68,57,59,57,53,93,70,46,29.90,29.83,10,4,12,0.00
2013-8-2,78,67,58,62,56,51,94,70,40,29.93,29.78,8,4,12,0.08
2013-8-3,76,65,54,59,54,50,90,70,43,30.13,29.93,9,4,14,0.00
2013-8-4,69,61,52,55,52,46,93,74,44,30.22,30.08,6,2,9,0.00
2013-8-5,69,62,53,64,58,51,95,88,76,30.08,29.83,5,2,10,0.08
2013-8-6,80,69,61,68,64,60,96,84,57,29.83,29.67,7,2,14,0.00
2013-8-7,74,66,59,66,61,57,97,84,61,29.99,29.57,22,4,30,0.93
2013-8-8,76,64,52,59,55,50,95,75,45,30.03,29.94,6,2,10,0.01
2013-8-9,76,67,56,61,54,48,91,66,39,30.03,29.90,12,4,15,0.00
2013-8-10,73,66,58,61,57,52,89,75,59,30.12,30.03,7,2,9,0.00
2013-8-11,74,65,57,61,58,55,92,78,57,30.08,29.99,7,3,11,0.00
2013-8-12,77,64,54,65,59,47,96,83,58,30.02,29.85,10,4,12,0.04
2013-8-13,66,57,48,54,48,44,89,72,55,30.16,30.02,10,4,14,0.02
2013-8-14,68,57,46,55,49,44,93,78,53,30.21,30.09,8,2,9,0.00
2013-8-15,79,64,49,62,54,47,94,74,37,30.10,30.02,7,2,10,0.00
2013-8-16,79,67,52,64,57,51,96,74,45,30.15,30.07,6,2,10,0.00
2013-8-17,81,69,57,64,58,54,94,71,41,30.21,30.12,7,2,13,0.00
2013-8-18,81,70,57,65,59,54,94,72,43,30.18,30.03,6,2,9,0.00
2013-8-19,83,71,58,65,62,56,94,74,47,30.03,29.92,9,4,13,0.00
2013-8-20,86,75,65,70,66,62,92,73,52,30.00,29.91,9,4,15,0.00
2013-8-21,87,76,66,74,69,63,95,77,60,29.95,29.79,17,5,25,0.46
2013-8-22,79,70,62,65,61,54,97,74,44,30.13,29.92,6,2,8,0.00
2013-8-23,75,65,54,62,57,52,93,76,53,30.20,30.13,5,2,9,0.00
2013-8-24,81,69,57,66,60,55,96,76,48,30.23,30.10,8,3,12,0.00
2013-8-25,90,80,70,76,70,63,83,72,61,30.10,29.92,11,6,15,0.00
2013-8-26,87,78,70,74,71,68,93,80,64,30.03,29.86,10,4,15,0.20
2013-8-27,77,72,69,75,70,68,97,95,89,29.95,29.78,12,3,17,1.54
2013-8-28,83,74,69,73,70,68,98,87,66,30.01,29.85,6,2,8,0.00
2013-8-29,86,75,66,75,69,65,97,84,55,30.05,29.91,7,2,9,0.06
2013-8-30,81,74,65,74,68,62,94,82,65,29.95,29.74,11,6,14,0.04
2013-8-31,75,67,61,68,63,59,96,89,75,29.89,29.76,6,2,8,0.00
2013-9-1,80,70,63,72,64,58,96,84,53,29.80,29.66,10,4,13,0.06
2013-9-2,65,60,54,58,52,49,87,76,64,30.00,29.80,12,6,14,0.00
2013-9-3,75,62,49,56,52,47,94,73,49,30.04,29.92,8,4,12,0.00
2013-9-4,70,62,56,60,55,47,91,79,62,30.18,29.92,7,3,8,0.00
2013-9-5,66,58,46,52,49,44,92,73,50,30.31,30.17,6,2,9,0.00
2013-9-6,78,65,50,67,58,48,94,79,60,30.21,29.89,8,3,12,0.01
2013-9-7,83,72,62,72,66,58,92,84,65,30.03,29.83,10,4,14,0.35
2013-9-8,70,63,54,60,55,52,93,78,56,30.13,29.98,7,3,11,0.00
2013-9-9,76,68,62,74,65,59,95,92,87,29.99,29.65,8,3,10,0.00
2013-9-10,88,77,68,74,69,65,94,77,55,29.90,29.66,10,4,13,0.12
2013-9-11,81,72,65,70,66,58,96,82,57,29.95,29.86,10,3,11,0.01
2013-9-12,69,61,50,58,52,44,85,72,46,30.15,29.92,14,6,20,0.00
2013-9-13,60,52,45,49,44,39,93,74,58,30.23,30.13,8,4,12,0.00
2013-9-14,68,56,44,55,48,42,96,78,51,30.15,29.95,10,3,15,0.00
2013-9-15,62,56,45,58,51,40,95,85,70,30.28,29.95,9,4,18,0.18
2013-9-16,58,48,40,45,42,37,93,78,46,30.44,30.28,8,3,13,0.00
2013-9-17,64,53,38,56,48,37,96,85,71,30.37,30.10,8,3,13,0.01
2013-9-18,71,63,58,66,60,54,94,90,83,30.10,29.84,7,3,12,0.31
2013-9-19,80,69,60,73,66,59,97,91,76,29.86,29.65,10,4,13,0.02
2013-9-20,74,68,58,68,62,51,96,84,62,29.75,29.62,9,5,12,0.01
2013-9-21,58,53,44,51,45,39,93,77,58,29.97,29.76,12,5,16,0.00
2013-9-22,54,46,39,43,40,37,95,81,64,30.11,29.97,6,2,8,0.00
2013-9-23,60,48,37,50,44,36,97,85,67,30.17,30.08,6,2,11,0.00
2013-9-24,66,55,43,59,51,42,97,87,68,30.11,30.00,7,2,12,0.00
2013-9-25,67,54,42,58,51,41,97,88,69,30.04,29.99,5,2,8,0.01
2013-9-26,70,56,43,62,52,42,97,88,63,30.10,30.01,5,1,9,0.00
2013-9-27,74,60,45,64,54,44,97,83,67,30.15,30.05,7,2,12,0.01
2013-9-28,71,65,57,64,60,55,94,84,73,30.05,29.75,10,6,19,0.22
2013-9-29,68,57,48,55,51,47,96,81,55,30.01,29.86,6,3,12,0.01
2013-9-30,70,59,48,55,51,47,96,76,50,29.96,29.77,10,4,16,0.00
2013-10-1,79,68,60,62,56,43,87,67,47,29.89,29.69,11,6,16,0.00
2013-10-2,71,59,47,50,45,39,90,62,32,30.07,29.89,6,2,9,0.00
2013-10-3,64,58,50,58,55,48,96,90,76,29.98,29.88,12,4,17,0.08
2013-10-4,59,57,54,57,55,53,95,94,90,30.06,29.89,12,6,19,0.31
2013-10-5,62,59,58,61,58,57,98,97,94,30.04,29.71,9,5,17,1.06
2013-10-6,63,59,52,63,53,44,98,84,55,29.72,29.60,9,4,11,0.08
2013-10-7,64,53,42,48,44,39,92,73,41,30.05,29.61,9,4,13,0.00
2013-10-8,69,56,41,57,50,39,96,81,48,30.13,30.05,8,3,13,0.01
2013-10-9,73,62,54,56,53,50,89,75,50,30.16,30.08,9,4,14,0.00
2013-10-10,69,56,44,58,51,42,96,85,59,30.17,30.06,6,1,11,0.00
2013-10-11,67,56,44,62,52,43,98,86,64,30.08,29.94,8,2,13,0.01
2013-10-12,66,61,50,62,55,42,92,81,60,30.05,29.83,7,5,11,0.20
2013-10-13,59,50,40,47,42,38,93,75,53,30.40,30.05,7,3,9,0.00
2013-10-14,58,48,35,49,43,34,96,82,63,30.45,30.21,6,2,12,0.00
2013-10-15,56,55,52,55,52,48,96,90,81,30.20,29.67,7,4,13,0.52
2013-10-16,52,49,45,50,45,40,95,87,77,29.89,29.66,9,4,13,0.06
2013-10-17,53,44,33,43,39,32,96,84,65,29.89,29.74,4,1,8,0.00
2013-10-18,49,44,40,46,42,38,95,92,87,29.88,29.75,7,3,11,0.06
2013-10-19,52,42,32,43,37,31,97,85,54,29.86,29.67,8,2,9,0.05
2013-10-20,46,40,32,42,37,31,95,90,73,29.83,29.65,6,2,8,0.12
2013-10-21,42,39,32,41,32,24,96,78,59,29.83,29.64,10,5,15,0.00
2013-10-22,45,38,32,33,30,27,88,74,54,29.95,29.75,10,5,14,0.00
2013-10-23,44,34,28,32,28,25,94,82,48,29.93,29.88,9,3,13,0.00
2013-10-24,44,38,30,33,30,26,88,75,54,30.23,29.96,11,5,21,0.01
2013-10-25,50,39,28,36,29,25,91,70,49,30.28,29.67,12,5,21,0.00
2013-10-26,51,45,36,39,32,26,73,60,50,30.01,29.62,13,7,23,0.00
2013-10-27,51,42,35,36,32,28,84,69,48,30.08,29.82,11,4,15,0.00
2013-10-28,43,37,30,34,27,22,84,67,52,30.48,30.08,13,6,18,0.00
2013-10-29,44,37,29,38,32,23,88,81,74,30.49,30.20,4,2,7,0.01
2013-10-30,53,48,41,52,45,38,95,92,83,30.20,29.74,6,2,9,0.20
2013-10-31,54,53,52,53,52,51,98,97,95,29.74,29.09,6,2,7,0.67
2013-11-1,53,47,42,53,44,39,98,89,78,29.71,29.10,9,5,15,0.30
2013-11-2,44,40,33,39,35,30,92,83,68,30.17,29.71,7,4,11,0.00
2013-11-3,47,40,28,41,35,27,96,85,71,30.32,30.16,8,3,17,0.00
2013-11-4,51,48,46,46,43,41,88,82,76,30.27,30.03,12,8,21,0.00
2013-11-5,54,48,37,46,42,34,96,81,52,30.26,29.87,7,3,10,0.83
2013-11-6,47,40,35,46,36,25,96,86,64,30.07,29.72,11,6,14,0.24
2013-11-7,40,35,30,27,26,25,80,69,58,30.16,30.07,9,5,14,0.00
2013-11-8,45,37,29,40,30,24,86,74,51,30.24,29.86,9,4,15,0.03
2013-11-9,47,44,41,43,38,32,93,80,67,29.92,29.64,15,8,24,0.37
2013-11-10,46,41,38,34,31,29,81,68,52,30.22,29.91,10,6,17,0.00
2013-11-11,42,31,26,35,21,12,88,66,44,30.52,30.01,14,8,21,0.01
2013-11-12,31,26,21,16,14,10,76,61,41,30.66,30.48,9,4,13,0.00
2013-11-13,44,33,21,27,20,14,77,61,46,30.48,29.91,12,7,17,0.00
2013-11-14,43,39,35,37,27,20,89,64,51,29.92,29.81,7,4,11,0.02
2013-11-15,50,39,30,39,34,27,95,81,66,29.89,29.82,7,2,10,0.00
2013-11-16,53,45,36,51,43,34,96,92,85,29.87,29.40,13,6,22,0.51
2013-11-17,55,50,42,54,48,34,97,93,74,29.43,29.11,17,6,25,0.37
2013-11-18,42,35,28,34,24,20,78,65,55,30.21,29.43,17,10,23,0.00
2013-11-19,36,30,19,32,23,17,92,78,61,30.39,30.22,5,2,9,0.00
2013-11-20,44,40,36,36,34,32,88,81,67,30.26,30.13,10,4,18,0.00
2013-11-21,41,39,33,38,37,31,95,92,83,30.28,30.12,10,3,13,0.04
2013-11-22,36,31,27,31,22,15,92,71,55,30.45,30.29,11,6,17,0.00
2013-11-23,27,18,12,16,4,0,67,56,43,30.69,30.36,15,9,20,0.00
2013-11-24,26,19,11,10,6,2,78,59,44,30.67,30.09,15,6,20,0.00
2013-11-25,34,31,26,27,20,9,81,65,46,30.09,29.88,13,8,17,0.00
2013-11-26,34,26,14,27,16,5,89,69,44,30.19,29.92,12,6,16,0.00
2013-11-27,28,21,14,17,13,8,82,72,51,30.24,30.16,11,5,16,0.00
2013-11-28,28,23,17,22,19,13,91,85,71,30.49,30.20,6,2,10,0.01
2013-11-29,32,23,11,26,18,8,91,79,65,30.63,30.35,7,2,12,0.00
2013-11-30,37,34,30,30,27,25,88,77,70,30.36,30.03,8,3,12,0.00
2013-12-1,36,33,30,30,28,26,89,82,75,30.15,30.01,5,2,7,0.00
2013-12-2,38,34,29,32,28,23,92,82,58,30.01,29.86,5,1,6,0.00
2013-12-3,38,34,32,32,31,29,96,89,73,29.90,29.83,9,6,17,0.00
2013-12-4,44,38,30,44,37,30,98,97,95,29.88,29.35,12,5,16,0.76
2013-12-5,40,23,11,38,17,4,95,76,60,30.22,29.43,15,10,28,0.00
2013-12-6,17,10,4,5,2,-1,79,72,58,30.52,30.22,8,5,11,0.00
2013-12-7,13,6,0,0,-3,-6,78,68,55,30.67,30.52,7,5,11,0.00
2013-12-8,14,8,1,12,3,-5,91,81,70,30.63,30.03,6,3,7,0.00
2013-12-9,19,11,-1,14,6,-7,91,79,63,30.13,29.86,13,6,22,0.00
2013-12-10,14,5,-2,3,-1,-8,86,74,62,30.23,29.88,11,4,15,0.00
2013-12-11,9,3,-3,-1,-5,-10,80,68,51,30.48,30.22,8,4,13,0.00
2013-12-12,16,8,-2,8,0,-9,81,71,63,30.45,30.17,9,4,13,0.00
2013-12-13,16,14,12,10,6,2,80,68,58,30.38,30.19,7,5,13,0.00
2013-12-14,22,18,14,19,14,9,91,86,72,30.38,29.90,8,4,13,0.00
2013-12-15,16,12,3,14,5,-2,91,73,55,30.11,29.85,13,7,19,0.00
2013-12-16,20,9,-5,12,4,-9,87,82,70,30.18,29.95,6,3,12,0.00
2013-12-17,28,20,13,22,16,9,91,84,76,30.00,29.85,7,3,12,0.01
2013-12-18,22,14,6,18,9,2,90,78,66,30.07,29.74,7,2,10,0.00
2013-12-19,27,20,9,21,15,6,91,83,73,30.12,29.77,9,4,12,0.00
2013-12-20,24,22,20,22,20,18,94,92,91,30.05,29.86,9,6,18,0.00
2013-12-21,26,24,22,23,21,20,94,89,81,30.00,29.85,11,5,16,0.00
2013-12-22,25,22,20,22,20,19,93,92,86,30.13,29.84,12,7,20,0.01
2013-12-23,22,19,11,20,15,6,93,84,74,30.42,30.12,6,4,8,0.00
2013-12-24,20,9,0,12,3,-3,88,79,56,30.53,30.33,5,1,8,0.00
2013-12-25,18,15,10,15,12,6,90,85,79,30.33,30.05,7,4,11,0.00
2013-12-26,17,13,8,15,9,5,90,83,71,30.25,30.04,6,2,7,0.00
2013-12-27,32,24,14,28,20,11,90,86,82,30.26,29.89,10,4,15,0.00
2013-12-28,38,30,22,32,27,20,95,88,77,30.00,29.74,5,2,7,0.05
2013-12-29,31,15,0,30,7,-6,95,71,55,30.22,29.74,14,8,23,0.00
2013-12-30,4,-1,-13,-5,-11,-100,82,68,60,30.34,30.18,5,-20,8,0.00
2013-12-31,8,0,-6,-4,-41,-100,79,45,52,30.46,30.17,9,-353,10,0.00
2014-1-1,11,4,-2,2,-53,-100,75,32,59,30.52,30.42,6,-519,8,0.00
2014-1-2,13,4,-4,0,-44,-100,77,38,51,30.46,30.36,10,-415,15,0.00